Content
SEND FEEDBACK

Daily
Averages
Monthly
Summary
United States of America

YIGO, GUAM


Home > North America > United States > Guam
Elevation: 530 feet     Latitude: 13 32N     Longitude: 144 53E

WEATHER
 
SELECT A DAY
Number of Records: 215,513;   Date Range: 1/1/95 - 12/17/14
 
SHARE

PRINT THIS DATA

[ ← Previous Day ]
WEATHER ALMANAC - APRIL 18, 2014
[ Next Day → ]
[ °C ]   °F
Weather ElementAverageHighLow
Temperature83.9 °F89.1 °F (1:54 pm)80.1 °F (1:54 am)
Dewpoint76.7 °F78.8 °F (6:52 am)75 °F (1:54 pm)
Humidity79.3 %94 % (6:52 am)63 % (1:54 pm)
Barometer29.78 in29.85 in (9:24 am)29.73 in (3:54 pm)
Wind Speed11.1 mph15 mph (10:54 am)
Wind Gust21.9 mph (2:54 pm)
Weather ElementAverage
Visibility9.9 mi
Wind DirectionENE (71.4 °)

Weather ElementTotal
Precipitation---
Cooling Degree Days19.6 (Base 65)
Growing Degree Days34.6 (Base 50)
Averaged from 28 records on April 18, 2014
WEATHER CONDITIONS BREAKOUT
WIND DIRECTION BREAKOUT
WEATHER BY HOUR - APRIL 18, 2014
[ °C ]   °F
Local TimeTemperatureDewpointHumidityBarometerVisibilityWind DirectionWind SpeedGust SpeedPrecipitationEventsConditions
1:54 AM80.1 °F77.0 °F90 %29.78 in10.0 miENE (70°)10.4 mphClear
2:54 AM80.1 °F77.0 °F90 %29.75 in10.0 miENE (60°)10.4 mph0.00 inPartly Cloudy
3:54 AM80.1 °F77.0 °F90 %29.75 in10.0 miENE (70°)12.7 mphPartly Cloudy
4:54 AM80.1 °F77.0 °F90 %29.75 in10.0 miENE (70°)11.5 mphClear
5:54 AM80.1 °F77.0 °F90 %29.77 in10.0 miENE (60°)10.4 mphClear
6:52 AM80.6 °F78.8 °F94 %29.81 in7.0 miENE (60°)5.8 mph0.00 inRainLight Rain
6:54 AM80.1 °F78.1 °F94 %29.78 in10.0 miENE (60°)6.9 mph0.00 inScattered Clouds
7:54 AM82.0 °F77.0 °F85 %29.81 in10.0 miEast (80°)9.2 mphClear
8:54 AM82.9 °F78.1 °F85 %29.82 in10.0 miENE (70°)12.7 mphScattered Clouds
9:24 AM84.2 °F77.0 °F79 %29.85 in10.0 miEast (90°)12.7 mphMostly Cloudy
9:54 AM84.9 °F75.9 °F74 %29.82 in10.0 miEast (80°)13.8 mphMostly Cloudy
10:54 AM87.1 °F75.9 °F69 %29.81 in10.0 miEast (80°)15.0 mph20.7 mphMostly Cloudy
11:04 AM87.8 °F75.2 °F66 %29.82 in10.0 miEast (80°)12.7 mph20.7 mphScattered Clouds
11:30 AM86.0 °F75.2 °F70 %29.81 in10.0 miENE (70°)12.7 mphMostly Cloudy
11:54 AM87.1 °F75.9 °F69 %29.78 in10.0 miENE (60°)13.8 mphMostly Cloudy
12:18 PM87.8 °F75.2 °F66 %29.80 in10.0 miENE (70°)12.7 mphScattered Clouds
12:54 PM86.0 °F78.1 °F77 %29.76 in10.0 miENE (70°)12.7 mph0.00 inRainLight Rain
1:54 PM89.1 °F75.0 °F63 %29.75 in10.0 miEast (90°)11.5 mph20.7 mph0.00 inPartly Cloudy
2:54 PM89.1 °F75.0 °F63 %29.74 in10.0 miENE (70°)15.0 mph21.9 mph0.00 inPartly Cloudy
3:54 PM86.0 °F75.9 °F72 %29.73 in10.0 miEast (80°)12.7 mph19.6 mphPartly Cloudy
4:54 PM86.0 °F75.9 °F72 %29.73 in10.0 miEast (90°)11.5 mphPartly Cloudy
5:54 PM84.9 °F75.9 °F74 %29.74 in10.0 miENE (60°)12.7 mphPartly Cloudy
6:54 PM82.9 °F77.0 °F82 %29.77 in10.0 miENE (70°)8.1 mphClear
7:54 PM82.9 °F77.0 °F82 %29.78 in10.0 miENE (60°)11.5 mphClear
8:54 PM82.9 °F77.0 °F82 %29.80 in10.0 miENE (70°)10.4 mphPartly Cloudy
9:54 PM82.9 °F77.0 °F82 %29.81 in10.0 miEast (90°)6.9 mphClear
10:54 PM82.9 °F78.1 °F85 %29.81 in10.0 miENE (60°)8.1 mphScattered Clouds
11:54 PM82.0 °F77.0 °F85 %29.80 in10.0 miENE (60°)5.8 mphPartly Cloudy
Hourly data recorded from PGUM, located miles away from Yigo, Guam







STORIES FROM OUR PARTNERS